Location: Thouarc�
(47.2667°N, 0.5000°W)
Time: 12:19:27
(UTC+01:00)

ISS - Visible Passes

Search period start: 07 February 2026 00:00
Search period end: 17 February 2026 00:00
Orbit: 414 x 429 km, 51.6° (Epoch: 6 February)

Date Brightness Start Highest point End Pass type
(mag) Time Alt. Az. Time Alt. Az. Time Alt. Az.
11 Feb -0.6 07:06:15 10° SSE 07:07:51 13° SE 07:09:26 10° ESE visible
13 Feb -2.0 07:07:13 10° SSW 07:10:13 31° SE 07:13:13 10° E visible
14 Feb -1.4 06:20:53 11° S 06:23:17 20° SE 06:25:50 10° E visible
15 Feb -0.9 05:36:13 13° SE 05:36:22 13° SE 05:38:04 10° ESE visible
15 Feb -3.6 07:09:22 10° WSW 07:12:42 73° SSE 07:16:02 10° ENE visible
16 Feb -3.0 06:24:22 30° SSW 06:25:37 48° SSE 06:28:51 10° ENE visible
